Date and Time,30m Wind Direction,30m Wind Speed,30m Wind Vert,30m Quality,40m Wind Direction,40m Wind Speed,40m Wind Vert,40m Quality,50m Wind Direction,50m Wind Speed,50m Wind Vert,50m Quality,60m Wind Direction,60m Wind Speed,60m Wind Vert,60m Quality,80m Wind Direction,80m Wind Speed,80m Wind Vert,80m Quality,100m Wind Direction,100m Wind Speed,100m Wind Vert,100m Quality,120m Wind Direction,120m Wind Speed,120m Wind Vert,120m Quality,140m Wind Direction,140m Wind Speed,140m Wind Vert,140m Quality,160m Wind Direction,160m Wind Speed,160m Wind Vert,160m Quality,180m Wind Direction,180m Wind Speed,180m Wind Vert,180m Quality,200m Wind Direction,200m Wind Speed,200m Wind Vert,200m Quality,30m Wind Turbulence,40m Wind Turbulence,50m Wind Turbulence,60m Wind Turbulence,80m Wind Turbulence,100m Wind Turbulence,120m Wind Turbulence,140m Wind Turbulence,160m Wind Turbulence,180m Wind Turbulence,200m Wind Turbulence
9/12/2018 12:00 AM,62.30,3.42,0.06,98,59.30,3.59,0.05,97,54.80,2.44,-0.03,93,55.70,3.16,-0.11,91,296.60,2.84,-1.15,57,52.80,4.47,-0.44,70,72.40,3.66,-0.13,91,116.90,1.72,-0.25,88,58.00,2.27,-0.38,92,101.90,1.07,-0.09,92,139.50,2.25,-0.07,92,0.10,0.11,0.32,1.19,2.09,0.85,0.75,0.88,1.08,2.02,0.41
9/12/2018 12:10 AM,61.80,3.07,0.11,97,62.50,3.24,0.08,98,59.60,3.53,0.06,97,90.90,3.98,0.28,90,109.80,3.50,0.13,71,351.40,3.85,-0.28,53,114.10,15.21,0.32,35,42.10,4.57,-0.46,63,84.40,4.40,-0.23,64,82.00,2.41,0.05,90,102.60,2.75,0.08,92,0.09,0.08,0.17,0.75,1.58,2.07,0.31,1.11,1.37,2.58,0.77
9/12/2018 12:20 AM,55.50,3.18,0.05,98,64.30,3.63,0.01,98,58.00,3.95,0.04,97,91.00,3.81,0.00,91,174.00,2.07,-1.87,46,195.60,13.18,-1.83,50,91.60,5.09,-0.07,86,84.10,4.22,-0.06,90,113.50,4.29,-0.34,89,141.40,4.37,-0.70,71,141.40,2.93,-0.46,57,0.10,0.09,0.08,0.50,5.73,0.51,0.99,0.48,0.46,0.96,0.59
9/12/2018 12:30 AM,52.20,3.47,0.05,99,53.20,3.68,0.08,98,63.60,4.18,0.14,98,68.80,3.94,0.19,94,110.50,4.46,0.00,73,181.80,13.38,-1.55,22,110.70,5.32,0.03,47,102.10,4.32,0.06,92,46.60,4.79,-0.30,78,158.50,6.16,0.10,30,164.10,12.91,-1.06,10,0.08,0.08,0.13,0.32,0.57,0.66,1.01,0.61,0.95,0.41,0.48
9/12/2018 12:40 AM,50.20,3.47,0.07,98,51.10,3.87,0.02,96,51.00,4.20,0.04,99,47.70,4.23,-0.02,97,49.10,3.39,-0.11,94,49.10,3.26,-0.13,85,334.40,3.11,-1.40,34,40.80,1.14,-1.29,28,66.20,3.99,0.05,79,67.10,3.18,-0.09,84,178.30,2.14,-0.89,28,0.09,0.07,0.06,0.26,0.67,0.86,1.20,0.94,1.84,0.64,0.79
9/12/2018 12:50 AM,56.60,3.55,0.08,98,52.10,3.85,0.04,98,52.70,4.14,0.05,98,32.90,3.10,-0.28,93,15.80,2.69,-0.54,92,146.70,1.87,-2.11,59,91.40,13.78,-4.69,37,9.80,4.13,-2.29,37,131.60,0.78,-0.97,87,86.40,4.42,-0.66,84,297.80,7.62,-3.34,44,0.07,0.07,0.27,0.66,0.76,1.66,1.07,2.85,1.91,0.83,0.64
9/12/2018 1:00 AM,56.30,3.61,0.05,98,54.10,4.15,0.04,97,59.20,3.59,0.01,96,35.00,3.33,-0.31,89,55.50,3.42,-0.33,83,344.20,2.49,-1.17,55,346.60,7.84,-1.83,20,76.30,4.96,-2.73,25,104.20,6.21,-1.91,9,187.60,6.77,-2.03,26,213.80,7.72,-1.59,11,0.08,0.10,0.30,0.62,1.18,1.54,1.17,2.47,1.19,0.85,1.91
9/12/2018 1:10 AM,39.50,3.62,-0.01,96,41.00,3.68,-0.01,96,58.40,3.76,-0.02,95,69.30,3.75,-0.18,92,35.40,3.80,-1.26,84,156.70,3.54,-3.68,27,210.30,16.74,-3.94,13,197.80,6.59,-2.60,40,62.60,6.01,-4.04,22,9.70,5.39,-5.72,12,214.30,8.20,-5.81,10,0.10,0.11,0.47,0.75,1.17,1.10,0.87,0.68,1.12,0.93,0.22
9/12/2018 1:20 AM,36.80,3.51,0.04,97,41.40,4.08,0.05,97,42.70,4.22,0.09,97,44.10,3.81,0.13,95,40.20,3.86,-0.13,73,37.80,2.96,0.14,55,179.30,16.31,-1.28,8,241.70,2.58,-1.75,28,173.00,4.00,-0.96,45,164.40,11.11,-1.06,14,265.40,14.68,-2.73,4,0.11,0.08,0.09,0.32,0.79,2.66,0.20,1.29,1.24,0.36,0.73
9/12/2018 1:30 AM,33.00,3.10,0.01,95,35.40,3.70,0.01,96,38.30,3.79,0.04,97,44.50,4.04,0.07,97,55.10,4.17,-0.02,92,47.00,2.79,-1.50,32,162.10,5.78,-2.27,17,16.20,6.63,-0.81,26,159.70,3.10,-0.87,33,69.80,7.85,-2.88,2,0.80,17.33,-3.96,7,0.10,0.09,0.08,0.07,0.58,0.72,1.51,0.37,1.79,0.32,3.76
9/12/2018 1:40 AM,39.60,3.40,-0.01,96,38.80,4.20,-0.02,97,44.60,4.13,-0.02,98,46.20,4.05,0.01,97,359.40,3.34,-0.55,78,77.90,5.25,-6.02,44,164.80,1.87,-5.51,45,149.40,8.80,-5.98,48,116.30,16.58,-5.71,41,161.50,2.98,-6.95,35,103.40,4.61,-7.36,37,0.10,0.08,0.15,0.12,0.58,0.48,1.07,0.46,0.52,0.74,1.15
9/12/2018 1:50 AM,52.40,3.62,0.05,97,54.70,3.65,0.03,99,62.90,3.31,-0.01,94,86.10,5.21,-0.42,49,131.90,5.81,-0.82,18,42.40,5.17,-0.60,17,37.20,7.54,-1.32,3,90.00,5.78,-3.24,3,144.80,28.20,-4.05,2,68.30,9.65,-2.50,5,76.60,9.77,-2.60,18,0.06,0.09,0.29,0.44,1.95,0.39,0.41,0.62,0.19,0.52,0.48
9/12/2018 2:00 AM,52.00,3.00,0.08,98,61.20,3.19,0.05,99,60.20,2.85,0.02,94,69.90,2.57,-0.09,82,115.50,4.41,-0.22,56,200.00,16.93,-4.01,17,326.70,2.89,-6.03,13,96.20,6.39,-5.94,5,224.50,16.55,-5.10,1,168.20,11.49,-6.04,2,200.80,14.36,-5.28,8,0.08,0.11,0.28,0.78,0.60,0.31,0.46,0.80,0.14,0.19,0.26
9/12/2018 2:10 AM,36.00,2.41,0.00,96,48.40,2.67,0.09,97,56.50,2.96,0.07,96,57.50,2.89,0.05,72,251.50,0.87,-1.13,38,217.70,15.09,-3.66,25,190.20,5.68,-6.59,4,159.40,9.71,-6.97,2,135.20,8.42,-7.28,2,219.10,2.87,-8.53,4,207.40,12.95,-6.30,1,0.12,0.09,0.10,0.71,2.01,0.29,0.89,0.31,0.79,0.56,0.26
9/12/2018 2:20 AM,41.00,2.28,-0.02,94,55.40,2.31,0.08,97,64.70,2.82,0.04,98,100.70,1.91,-0.23,94,218.80,3.09,-1.23,54,206.70,6.72,-2.92,69,202.00,12.77,-4.62,60,239.20,1.87,-8.54,25,277.00,3.23,-7.19,29,159.20,3.21,-8.05,36,217.30,5.70,-7.91,21,0.16,0.15,0.33,0.90,0.67,0.56,0.79,1.59,1.32,0.40,0.62
9/12/2018 2:30 AM,55.20,2.49,-0.01,96,62.80,2.80,0.05,96,75.50,2.87,0.01,96,83.90,3.06,-0.02,95,127.20,3.80,-0.46,94,120.90,4.79,-0.88,91,171.70,10.36,-3.43,66,156.30,4.56,-7.78,36,158.10,11.94,-6.32,37,153.90,19.98,-3.90,37,198.20,11.65,-5.21,36,0.13,0.14,0.34,0.35,1.19,0.69,0.75,0.38,0.51,0.35,0.58
9/12/2018 2:40 AM,42.60,2.57,0.03,97,62.40,2.79,0.05,98,67.50,3.23,0.05,97,77.50,3.04,-0.06,96,95.10,4.26,-0.12,94,160.50,8.48,-1.77,36,133.50,9.18,-2.61,17,260.70,5.75,-6.09,31,211.80,8.38,-7.89,13,222.30,17.59,-6.32,16,258.90,5.40,-6.79,8,0.15,0.11,0.10,0.40,0.44,0.68,0.74,0.91,0.55,0.36,0.45
9/12/2018 2:50 AM,53.20,2.86,0.05,97,55.90,2.93,0.04,97,64.30,3.55,0.09,97,74.10,3.60,0.07,97,148.40,2.67,-0.58,74,183.60,5.04,-4.24,29,150.70,9.54,-2.33,46,165.60,3.96,-5.39,27,107.20,6.28,-6.52,27,5.90,7.66,-6.67,21,129.00,3.64,-6.48,28,0.11,0.09,0.09,0.20,2.53,0.76,0.99,1.33,0.83,0.61,0.62
9/12/2018 3:00 AM,47.50,2.66,0.02,96,55.00,2.90,0.05,97,67.30,3.07,0.02,98,65.90,3.32,0.07,96,49.30,3.45,-0.40,70,329.90,9.93,-3.20,20,293.90,9.77,-3.36,13,138.20,12.16,-4.41,8,5.60,4.54,-4.66,10,1.10,11.46,-4.27,5,316.30,11.67,-3.85,2,0.14,0.10,0.10,0.07,0.62,0.55,0.75,0.47,8.69,1.13,0.38
9/12/2018 3:10 AM,62.10,3.02,0.06,98,68.80,3.17,0.04,97,79.70,3.71,0.08,97,71.80,3.71,0.02,96,67.50,2.51,-0.20,59,117.60,3.76,-0.16,14,116.10,3.85,0.11,27,11.00,3.81,-0.69,17,352.60,6.59,0.03,8,177.30,12.49,-0.87,22,311.20,4.23,-0.27,4,0.09,0.09,0.13,0.14,1.41,1.63,0.62,0.52,0.39,0.45,0.51
9/12/2018 3:20 AM,78.70,2.84,0.02,97,72.90,3.19,0.01,98,86.50,3.57,-0.05,94,89.70,4.14,0.02,95,113.10,5.38,0.14,77,50.30,6.22,1.02,38,171.90,8.42,0.33,39,155.30,4.71,-0.13,49,165.50,7.49,0.38,32,1.40,1.33,0.98,34,173.60,5.97,0.97,44,0.11,0.12,0.16,0.17,0.43,0.50,0.41,0.39,0.50,3.85,0.55
9/12/2018 3:30 AM,73.30,2.54,0.09,97,78.80,2.70,0.07,97,80.90,3.43,0.15,96,88.30,3.84,0.14,93,74.40,6.05,0.77,28,48.10,5.29,1.53,25,328.70,10.36,0.30,27,331.10,4.94,1.70,16,151.80,9.02,1.11,20,123.40,7.34,1.46,17,4.20,2.51,1.35,23,0.14,0.12,0.19,0.14,0.24,0.71,0.52,0.87,0.29,0.46,0.55
9/12/2018 3:40 AM,89.40,3.11,0.04,96,97.50,2.99,0.02,96,96.00,3.69,0.04,94,91.30,3.73,0.06,90,67.90,5.33,0.09,3,225.20,8.06,-1.54,12,51.60,2.26,-1.00,10,252.30,17.25,-1.87,15,286.50,23.04,-0.69,16,328.10,4.56,-1.25,12,224.00,6.73,-0.87,6,0.11,0.10,0.10,0.38,1.09,0.77,1.34,1.68,0.28,0.70,0.52
9/12/2018 3:50 AM,89.60,3.22,-0.07,97,102.60,2.96,-0.04,96,104.00,3.62,-0.01,94,110.10,4.09,-0.04,86,107.50,5.85,-0.70,41,356.70,4.41,-1.02,7,126.20,6.42,-0.37,18,0.10,6.45,0.22,19,239.60,16.71,-3.04,9,75.50,12.81,-1.59,15,90.20,3.77,-3.78,11,0.20,0.23,0.31,0.43,0.75,0.69,0.31,0.33,0.62,0.53,0.60
9/12/2018 4:00 AM,110.30,2.87,-0.09,95,114.50,3.11,-0.03,95,118.60,4.02,-0.03,92,167.00,11.95,-0.56,32,173.70,5.16,-0.29,53,192.30,17.49,-2.16,21,199.60,17.14,-2.20,25,182.00,13.15,-0.86,40,146.50,11.19,-0.15,31,204.50,16.01,-1.23,14,169.50,17.76,-1.20,7,0.27,0.20,0.27,0.17,0.37,0.18,0.47,0.38,0.42,0.25,0.34
9/12/2018 4:10 AM,103.50,2.20,-0.07,96,110.30,2.20,-0.02,95,111.70,3.37,0.02,91,121.10,4.79,0.05,77,123.10,5.14,0.12,53,168.60,2.22,-0.17,25,118.30,1.42,-0.16,39,175.20,8.82,-0.22,37,225.10,4.71,-0.88,23,191.10,6.24,-1.43,22,279.50,4.38,-1.47,19,0.16,0.28,0.52,0.40,0.46,0.43,2.74,0.39,0.75,0.47,1.99
9/12/2018 4:20 AM,112.30,2.88,-0.01,98,119.20,3.28,-0.02,97,142.00,5.22,-0.39,92,173.40,5.75,-0.67,89,214.00,10.85,-3.34,31,219.70,14.87,-3.20,29,269.10,10.47,-2.82,23,203.60,10.88,-3.15,28,220.60,22.62,-4.72,27,257.40,20.00,-3.86,16,270.90,23.36,-4.21,25,0.10,0.18,0.35,0.47,0.34,0.29,1.16,0.50,0.40,0.55,0.26
9/12/2018 4:30 AM,116.10,3.11,-0.01,98,117.20,2.96,-0.01,97,120.50,3.86,-0.04,94,132.50,2.90,-0.17,90,296.70,10.77,-2.88,14,286.60,25.45,-3.76,16,245.30,20.05,-4.52,16,282.60,24.64,-4.00,5,275.40,18.95,-2.83,12,252.70,21.43,-3.76,17,280.90,23.13,-3.74,8,0.10,0.16,0.41,0.56,0.67,0.28,0.26,0.30,0.29,0.27,0.23
9/12/2018 4:40 AM,110.90,3.13,-0.01,98,120.40,3.36,-0.02,98,121.80,3.46,-0.06,97,126.10,1.72,-0.27,90,271.00,20.58,-3.11,11,265.80,8.67,-0.89,9,273.80,19.40,-2.77,11,305.30,18.13,-1.24,11,295.40,15.41,-1.99,16,314.00,14.17,-1.06,9,307.90,19.57,-1.38,13,0.10,0.09,0.39,1.53,0.28,0.56,0.26,0.27,0.39,0.48,0.27
9/12/2018 4:50 AM,116.70,3.08,-0.01,98,120.80,3.19,0.01,97,143.00,2.84,-0.20,93,213.70,1.82,-0.65,86,244.10,19.88,-4.10,10,275.70,21.91,-3.55,21,285.00,22.02,-3.11,30,305.20,19.00,-1.88,18,247.20,5.55,-0.33,27,306.40,26.30,-2.68,10,284.40,19.54,-1.66,25,0.11,0.08,0.38,1.17,0.18,0.33,0.41,0.51,0.88,0.16,0.30
9/12/2018 5:00 AM,110.70,2.97,0.02,98,118.80,3.23,0.00,98,120.50,3.92,-0.01,97,126.40,4.56,-0.10,93,240.90,10.59,-4.71,7,148.20,8.63,-3.56,6,127.30,5.48,-2.27,13,162.90,13.01,-1.45,15,69.30,6.80,-1.43,32,68.10,1.83,-1.22,35,131.20,4.66,-0.49,25,0.13,0.12,0.18,0.30,0.40,0.27,0.52,0.37,0.48,0.85,0.92
9/12/2018 5:10 AM,106.60,2.96,0.01,98,139.80,3.60,-0.07,95,158.70,8.78,-0.66,73,170.80,9.36,-0.96,36,179.80,15.41,-3.45,14,179.40,21.49,-3.51,14,175.70,7.73,-2.25,16,182.10,20.06,-3.02,25,186.80,18.74,-3.12,14,212.00,18.34,-2.43,30,189.10,6.43,-0.84,41,0.11,0.28,0.44,0.72,0.52,0.17,0.49,0.32,1.18,0.36,2.92
9/12/2018 5:20 AM,104.20,2.97,0.00,98,128.40,2.31,-0.05,95,88.40,2.67,-0.13,60,183.00,4.05,-0.78,22,315.00,12.95,-0.78,10,234.10,7.13,-1.39,10,245.40,19.53,-3.08,9,219.90,16.89,-2.31,11,334.90,8.69,-0.50,8,318.90,17.77,-0.56,10,200.40,2.91,-0.78,15,0.11,0.15,0.51,1.21,0.44,0.60,0.65,0.45,0.56,0.28,0.67
9/12/2018 5:30 AM,92.70,2.39,0.00,97,125.80,2.52,-0.02,93,159.60,7.62,-0.56,53,88.70,7.20,-0.81,11,182.80,22.80,-3.28,4,137.00,17.02,-1.19,4,215.90,34.79,-2.50,15,159.30,24.88,-1.64,8,224.50,6.60,-4.07,8,146.80,4.58,-5.39,3,313.60,16.92,-2.37,7,0.16,0.27,0.39,1.17,0.63,0.45,0.39,0.35,1.03,1.29,2.04
9/12/2018 5:40 AM,101.70,2.17,-0.03,98,115.80,2.41,0.00,93,116.50,3.10,-0.18,50,121.60,4.42,-0.38,12,117.90,17.39,-3.60,1,243.30,43.71,-4.09,2,238.30,18.70,-6.05,4,223.80,12.38,-4.84,1,162.00,14.13,-5.68,8,210.90,5.54,-3.96,2,139.20,8.37,-2.51,3,0.17,0.27,0.50,0.38,0.22,0.18,0.18,0.22,0.40,0.46,0.59
9/12/2018 5:50 AM,96.90,1.87,-0.07,96,83.80,1.02,-0.04,85,101.50,2.05,-0.02,51,177.70,20.45,-1.80,7,261.70,11.28,-1.93,2,108.80,21.88,0.99,1,150.20,20.31,-1.08,2,224.80,31.52,-3.33,6,200.20,27.28,-1.56,0,145.00,3.74,-0.11,26,192.70,5.42,0.07,29,0.25,0.35,0.55,0.15,1.96,0.18,0.16,0.24,0.18,0.30,0.41
9/12/2018 6:00 AM,55.00,1.24,0.08,96,1.60,0.86,0.13,80,45.70,1.08,0.24,65,22.30,1.89,0.06,56,324.50,2.81,-0.60,12,338.60,27.00,-3.23,1,176.20,16.38,-3.99,4,185.90,11.82,-4.79,4,299.70,19.54,-2.74,5,280.80,13.95,-5.19,1,129.60,4.06,-0.49,25,0.33,0.64,1.02,0.59,0.84,0.20,0.26,0.48,0.26,0.48,0.71
9/12/2018 6:10 AM,1.90,1.67,-0.19,97,13.50,1.14,-0.16,96,22.60,1.51,-0.14,96,23.50,1.23,-0.11,97,56.30,1.74,-0.06,94,70.90,1.37,-0.06,92,34.30,8.15,-1.08,24,280.50,24.33,-3.40,6,211.30,16.79,-2.40,4,223.50,10.65,-2.24,1,72.40,16.06,2.04,0,0.29,0.43,0.27,0.47,0.44,1.64,0.26,0.20,0.38,1.87,0.17
9/12/2018 6:20 AM,53.10,1.65,-0.23,96,81.70,1.12,-0.32,97,75.30,1.46,-0.22,96,92.80,1.95,-0.22,93,89.40,4.07,-0.37,45,327.30,0.71,-0.56,32,325.40,7.23,-2.18,7,278.90,20.14,-2.53,7,272.80,23.73,-3.50,10,311.50,19.34,-3.05,2,238.10,23.31,-6.64,3,0.56,0.88,0.55,0.43,0.56,6.03,0.65,0.29,0.26,0.29,0.25
9/12/2018 6:30 AM,70.10,1.65,-0.86,98,109.80,1.51,-1.20,96,94.00,2.04,-0.95,97,102.80,2.74,-0.79,95,102.50,3.32,-0.39,93,131.40,4.70,-0.31,90,162.70,15.13,-2.11,31,237.50,9.14,-1.33,14,218.90,9.04,-4.23,7,212.90,8.17,-4.36,12,178.00,18.88,-3.84,16,0.72,0.96,0.67,0.45,0.38,0.46,0.27,0.62,0.83,0.52,0.56
9/12/2018 6:40 AM,24.70,0.75,-0.02,96,67.60,1.48,0.02,89,103.90,1.70,-0.02,94,94.60,2.02,-0.01,92,109.10,2.63,-0.23,92,127.80,3.88,-0.45,87,66.60,3.59,-0.58,83,133.00,3.55,-1.35,47,158.30,6.29,-5.27,21,17.60,5.51,-2.89,16,59.90,5.54,-4.19,7,1.02,0.32,0.37,0.38,0.59,0.60,0.74,0.57,0.48,2.66,0.88
9/12/2018 6:50 AM,34.30,1.40,-0.04,95,61.70,1.16,-0.08,65,40.80,1.59,-0.10,92,60.90,2.29,-0.01,92,86.60,2.49,0.00,78,100.10,5.33,0.22,74,107.80,2.33,-0.81,48,118.90,1.46,-0.40,48,24.10,5.61,-1.00,4,187.60,10.33,-2.63,10,217.10,10.07,-3.48,7,0.39,0.95,0.92,0.38,0.45,0.46,2.20,1.03,0.89,0.35,0.39
9/12/2018 7:00 AM,26.00,1.34,-0.01,95,75.60,1.11,-0.05,84,95.20,2.33,-0.01,90,76.70,2.14,0.09,82,146.20,6.62,0.23,24,151.50,4.79,-1.84,7,150.20,15.71,-1.52,23,128.50,6.70,1.29,16,248.00,17.32,-0.40,20,196.80,14.21,-1.04,13,50.70,13.66,-1.03,26,0.41,0.66,0.50,0.59,1.60,0.61,0.55,0.52,0.36,0.31,2.30
9/12/2018 7:10 AM,24.70,0.75,-0.02,93,76.10,1.00,-0.09,93,122.00,3.66,0.02,66,137.60,5.43,-0.14,82,144.00,13.77,-0.14,41,111.00,17.23,0.68,36,77.10,22.94,0.18,20,84.60,20.03,1.55,42,123.20,17.48,1.14,17,91.80,18.18,0.69,14,107.00,18.88,1.38,6,1.93,0.98,0.92,0.45,0.37,0.45,0.34,0.62,0.39,0.97,0.47
9/12/2018 7:20 AM,15.90,1.70,-0.02,96,38.70,1.35,-0.04,92,56.50,4.40,0.13,86,51.30,3.17,0.13,91,82.70,4.93,0.24,84,62.80,21.46,0.32,45,52.50,23.65,-0.05,23,41.00,30.34,-0.95,26,57.20,41.42,0.65,23,46.00,28.92,-2.08,21,47.50,23.99,-0.37,17,0.28,0.72,0.47,0.72,0.30,0.42,0.64,0.36,0.21,0.23,0.33
9/12/2018 7:30 AM,25.50,1.74,-0.03,96,71.40,1.94,-0.10,92,83.60,2.23,-0.03,92,35.20,2.05,-0.34,89,325.80,6.50,-1.75,58,320.60,8.19,-5.61,10,297.00,16.29,-4.66,5,235.40,16.34,-5.41,8,227.90,6.54,-7.28,5,152.90,1.83,-6.25,4,3.90,8.05,-5.13,16,0.38,0.51,0.53,2.34,2.03,4.73,0.77,0.28,0.51,0.38,1.27
9/12/2018 7:40 AM,27.40,1.30,-0.09,96,48.80,1.13,-0.07,92,274.50,1.43,-0.70,60,284.30,3.29,-1.05,78,270.50,4.53,-1.52,44,278.50,17.48,-5.36,5,224.60,6.28,-4.01,15,322.60,4.84,-5.52,12,260.10,9.61,-6.45,11,354.20,16.07,-5.34,17,292.80,13.40,-4.53,12,1.26,0.63,1.06,0.98,0.59,0.62,0.52,1.82,1.63,0.44,0.23
9/12/2018 7:50 AM,46.50,1.50,0.04,96,48.20,1.86,-0.06,94,85.60,1.98,0.02,89,333.50,2.70,-0.12,88,334.50,22.04,1.20,20,359.00,23.62,1.66,28,351.90,24.47,-0.32,33,347.40,16.40,-1.79,24,27.20,19.34,0.04,28,353.10,16.66,-0.09,11,0.90,31.85,-0.19,29,0.24,0.55,1.06,0.43,0.36,0.26,0.46,0.68,1.35,0.95,0.29
9/12/2018 8:00 AM,54.10,2.20,0.02,96,104.90,1.69,-0.09,93,97.20,2.10,-0.05,93,121.30,2.18,-0.16,91,252.50,21.00,-3.10,10,152.40,9.85,1.43,21,32.60,14.54,1.03,12,249.80,21.26,-1.20,8,332.70,8.34,-0.18,9,277.10,20.67,-0.15,3,324.40,16.66,2.84,7,0.42,0.73,1.86,16.46,0.36,1.31,0.64,0.35,0.57,0.40,0.36
9/12/2018 8:10 AM,53.00,2.34,0.05,97,85.90,2.00,-0.01,96,128.50,2.38,-0.16,94,142.00,3.07,-0.27,92,286.00,8.14,-1.50,77,332.80,13.75,-1.82,14,254.80,12.78,-1.44,32,268.10,28.36,-0.79,16,263.00,27.11,-0.32,28,286.70,20.24,-1.58,12,1.70,11.73,-1.25,18,0.14,0.68,0.72,0.90,0.43,0.58,0.49,0.21,0.30,0.52,0.61
9/12/2018 8:20 AM,73.40,1.91,0.00,97,92.10,1.68,-0.07,93,99.00,2.51,0.10,91,136.40,3.06,0.19,88,156.20,8.01,1.28,51,46.20,6.43,1.98,33,241.90,15.05,-0.56,28,56.20,15.46,1.36,18,255.10,6.43,4.18,20,189.00,26.63,1.64,17,157.50,14.99,1.67,12,0.21,1.04,1.54,0.78,0.41,1.45,0.47,0.73,0.67,0.39,0.61
9/12/2018 8:30 AM,85.90,2.40,0.00,96,120.90,2.29,-0.12,93,138.70,3.22,-0.39,89,161.00,4.87,-0.55,66,101.60,11.33,-3.08,17,108.70,13.94,-2.76,38,94.50,9.13,-3.88,31,102.70,12.50,-3.17,16,57.50,5.79,-4.67,37,58.90,9.53,-4.51,22,71.90,13.84,-4.42,16,0.19,0.36,0.48,0.47,0.24,0.35,1.26,0.40,0.51,1.11,0.39
9/12/2018 8:40 AM,112.00,2.58,-0.09,96,204.60,4.19,-1.20,89,242.40,1.91,-3.25,63,116.90,1.56,-4.18,46,223.50,4.73,-5.45,36,121.30,11.69,-5.22,35,129.30,12.33,-5.72,32,158.10,9.13,-6.48,26,93.00,11.15,-6.33,24,197.90,7.94,-4.41,31,164.20,10.32,-6.55,31,0.30,0.97,0.68,0.69,0.97,0.33,0.44,0.68,0.31,0.72,0.64
9/12/2018 8:50 AM,33.40,0.85,0.03,96,113.40,1.45,0.01,96,114.90,2.04,-0.20,97,155.60,2.66,-0.53,96,194.70,5.57,-1.82,69,154.10,10.49,-3.43,45,198.30,16.23,-3.29,22,206.10,20.94,-3.18,16,204.20,12.61,-5.07,35,179.00,13.58,-3.93,29,175.10,3.69,-3.38,39,0.59,0.54,0.55,0.61,0.51,0.46,0.36,0.55,0.56,0.60,0.46
9/12/2018 9:00 AM,138.60,0.77,-0.06,97,104.90,1.13,-0.18,96,125.90,1.88,-0.20,96,140.10,4.94,-0.30,93,113.50,19.73,-1.75,63,113.40,27.40,-3.24,43,127.50,31.13,0.08,24,119.30,36.83,-0.19,30,110.10,31.01,-1.85,35,104.80,28.40,-2.13,28,116.70,34.50,-0.90,35,0.71,0.62,0.41,0.35,0.30,0.35,0.35,0.27,0.25,0.42,0.28
9/12/2018 9:10 AM,107.20,1.03,0.05,96,138.50,1.27,-0.01,95,146.50,1.56,0.00,96,148.40,3.05,-0.04,96,180.30,6.53,-0.93,66,206.90,16.83,-2.98,19,177.40,14.82,-1.26,21,136.90,23.32,-1.73,15,121.50,20.98,-3.21,22,174.30,17.98,-2.71,19,164.50,21.14,-1.11,21,1.31,1.15,1.19,0.31,0.58,0.59,0.50,0.30,0.48,0.38,0.40
9/12/2018 9:20 AM,83.70,0.49,0.11,94,110.60,1.57,0.15,94,135.10,1.50,-0.03,93,127.90,2.30,-0.15,92,119.70,3.76,-0.05,88,80.60,4.61,-1.86,11,60.70,17.40,-3.07,14,78.70,25.75,-2.77,15,155.90,9.52,-1.91,5,354.60,6.75,-2.94,5,42.70,12.35,-3.21,13,1.06,0.54,0.69,0.86,0.76,0.89,0.34,0.21,0.80,1.62,0.74
9/12/2018 9:30 AM,36.00,1.32,0.01,95,45.00,1.46,0.01,93,62.80,1.21,0.02,92,122.40,1.57,0.02,92,135.10,1.22,-0.15,72,199.70,7.79,-0.15,12,301.20,5.78,-1.42,9,302.10,2.70,-1.12,20,165.40,4.42,-3.23,13,96.80,3.16,-2.07,24,241.60,12.66,-0.36,13,0.44,0.40,0.92,0.49,0.96,0.46,1.39,6.42,1.38,1.12,0.30
9/12/2018 9:40 AM,351.90,1.30,-0.08,93,209.30,1.09,-0.49,91,235.50,0.98,-0.68,88,160.70,2.88,-0.38,90,180.60,3.33,-0.58,80,196.00,17.82,-3.10,6,160.10,10.59,-5.35,7,199.90,8.45,-4.59,13,210.90,3.99,-4.11,3,97.50,6.02,-7.83,10,245.00,15.77,-6.05,4,0.58,4.42,1.43,0.80,0.67,0.22,0.30,0.55,1.31,1.02,0.71
9/12/2018 9:50 AM,17.50,1.03,-0.21,91,265.10,2.09,-1.01,60,285.20,5.74,-1.75,46,269.40,8.93,-2.14,49,261.70,7.64,-2.25,38,67.70,5.77,-4.28,13,321.20,10.57,-7.42,22,350.00,9.63,-6.82,12,290.70,11.52,-5.24,3,283.20,11.39,-7.31,10,310.90,7.44,-7.20,15,1.67,1.55,0.65,0.48,0.91,0.90,0.37,0.43,0.35,0.38,0.51
9/12/2018 10:00 AM,56.00,1.31,-0.04,93,101.30,1.99,-0.25,59,163.90,3.43,-1.47,20,187.80,9.33,-2.58,14,132.20,8.37,-4.93,11,134.90,15.75,-3.35,4,341.60,8.62,-6.69,8,330.30,12.00,-6.48,3,238.70,8.16,-6.41,2,353.60,8.70,-6.37,13,343.80,8.84,-7.00,15,0.62,2.34,0.88,0.87,0.54,0.20,1.62,0.32,0.69,1.07,0.30
9/12/2018 10:10 AM,43.30,1.33,0.05,93,30.60,1.67,-0.12,76,206.50,13.43,-3.05,15,215.80,8.86,-2.36,16,285.00,8.82,-4.49,7,346.40,10.42,-3.64,12,311.30,7.97,-3.57,19,226.70,4.62,-4.99,9,153.50,15.20,-2.13,2,231.20,4.82,-4.84,7,254.90,18.24,-4.64,12,0.94,1.14,0.30,0.40,0.68,0.35,1.16,0.43,0.36,0.30,0.21
9/12/2018 10:20 AM,37.00,1.52,-0.05,94,184.10,3.22,-0.61,53,282.00,6.51,-2.60,27,234.90,7.83,-2.59,12,138.30,7.86,-5.53,12,104.00,4.19,-3.98,8,231.10,17.63,-4.14,6,172.50,1.83,-4.97,9,224.40,8.63,-2.65,1,11.00,4.44,-3.69,8,176.40,10.51,-4.56,4,0.41,1.05,1.21,0.37,0.73,0.73,0.42,0.50,0.37,0.50,0.37
9/12/2018 10:30 AM,25.40,2.02,-0.01,94,348.70,1.86,-0.23,86,284.30,5.50,-1.44,31,272.30,5.15,-3.56,21,165.50,10.91,-6.87,6,202.80,26.04,-4.46,20,233.60,15.97,-5.95,7,221.00,28.88,-4.76,13,205.10,15.24,-6.70,14,199.50,10.43,-7.31,12,135.00,11.86,-6.68,9,0.24,1.91,0.74,1.39,0.28,0.11,0.31,0.19,0.14,0.23,0.31
9/12/2018 10:40 AM,45.60,2.15,0.04,98,50.90,1.81,-0.01,93,70.00,1.85,-0.01,87,87.00,2.85,0.06,62,8.50,4.91,-1.35,8,9.10,18.08,-0.60,2,138.70,28.29,-2.86,1,64.40,10.39,-1.39,2,292.10,17.20,-0.03,5,323.40,15.27,0.66,2,128.10,11.36,-2.06,6,0.22,0.17,0.66,0.48,0.90,0.25,0.23,0.91,0.47,0.37,0.47
9/12/2018 10:50 AM,65.00,1.72,0.04,96,83.40,1.34,-0.02,92,107.90,1.83,-0.02,86,139.20,2.45,-0.17,79,153.70,3.19,-0.19,80,134.50,7.75,-1.53,24,98.40,26.54,-0.59,13,256.00,7.82,-4.21,8,154.10,15.22,-0.97,4,100.70,15.97,-3.74,10,203.50,14.43,-4.36,12,0.26,0.36,0.37,0.31,2.43,0.48,0.27,0.32,0.48,0.33,0.50
9/12/2018 11:00 AM,68.40,1.92,0.00,96,50.60,1.63,-0.06,94,94.70,2.02,-0.03,92,82.50,2.00,-0.12,91,157.50,5.09,-0.54,72,136.70,13.29,-4.12,5,107.40,15.30,-4.16,17,60.10,2.99,-2.36,28,181.50,19.52,-2.76,14,158.70,14.33,-5.95,10,194.60,13.24,-4.81,8,0.23,0.71,0.33,1.10,0.49,0.48,0.61,2.52,0.34,0.42,0.45
9/12/2018 11:10 AM,41.00,0.93,-0.05,95,55.10,1.52,-0.04,93,75.60,2.73,-0.13,90,349.30,2.95,-0.67,89,30.80,2.39,-1.82,43,78.60,6.35,-4.20,39,80.70,5.35,-1.76,57,8.40,10.25,-3.53,30,40.60,16.35,-4.84,29,59.40,9.88,-3.21,23,13.20,15.56,-5.69,10,0.62,0.87,0.73,1.79,5.25,1.26,1.25,0.87,0.52,0.83,1.19
9/12/2018 11:20 AM,40.10,1.43,0.07,94,32.10,0.82,0.14,94,13.60,1.88,0.21,81,114.60,2.03,0.38,64,246.20,10.05,0.61,45,103.70,15.49,2.19,30,266.70,5.98,1.03,45,256.60,2.05,0.25,48,296.50,13.21,0.51,20,315.00,6.28,0.34,28,277.00,6.56,1.96,43,0.34,0.89,0.90,0.64,1.01,0.28,3.00,0.75,2.33,1.26,3.41
9/12/2018 11:30 AM,38.40,0.85,-0.13,85,115.00,1.15,0.11,94,61.10,1.88,-0.09,92,237.60,2.06,-0.18,90,222.90,4.72,0.02,75,140.50,4.19,-0.39,43,227.30,6.15,-1.40,41,325.40,6.88,0.07,42,147.00,6.93,-0.20,35,344.50,2.06,-1.64,18,259.50,12.12,-0.85,40,0.66,1.28,0.83,0.64,1.23,0.65,2.59,0.69,0.89,1.76,0.47
9/12/2018 11:40 AM,97.10,1.24,-0.01,95,104.00,1.46,-0.01,95,118.50,1.26,-0.04,96,91.70,1.29,0.01,95,148.30,2.30,-0.27,89,190.90,5.31,-0.44,62,8.40,6.59,-1.94,26,51.90,6.63,-2.28,25,271.70,4.53,-1.97,23,114.60,4.63,-2.26,25,48.00,8.10,-1.44,14,0.36,0.37,0.89,1.20,0.69,0.40,0.53,0.69,0.27,1.62,1.10
9/12/2018 11:50 AM,308.50,0.85,-0.15,76,73.30,1.47,-0.14,93,52.80,2.15,-0.12,93,49.60,1.25,0.00,89,140.10,4.19,-0.46,62,60.40,0.76,-0.89,54,324.20,5.86,-1.31,43,124.70,7.83,-1.13,51,85.60,7.19,-1.09,51,84.70,11.44,-1.86,42,169.90,3.36,-2.45,42,0.72,0.52,0.43,0.50,1.01,1.02,1.08,1.22,0.51,0.48,3.82
9/12/2018 12:00 PM,77.10,1.21,-0.07,93,90.10,1.31,-0.02,94,95.70,1.35,0.01,92,100.40,1.63,-0.10,86,96.80,1.90,-0.05,85,305.30,4.67,-0.34,45,299.90,6.41,-0.75,50,226.20,6.82,-0.60,25,260.10,26.32,-0.04,9,270.30,19.67,-2.13,21,278.80,18.21,-1.45,13,0.44,0.36,0.49,0.68,0.62,0.58,0.40,0.98,0.28,0.45,0.47
9/12/2018 12:10 PM,67.00,1.66,-0.02,94,126.90,1.46,-0.08,96,116.10,1.58,-0.02,95,67.80,1.23,0.09,94,177.60,3.16,-0.32,92,172.90,15.22,-0.91,62,189.10,28.11,-1.69,39,191.20,23.88,-2.03,29,181.90,24.95,-3.50,24,223.70,20.07,-2.76,20,202.70,8.81,-1.05,20,0.31,0.63,0.65,0.92,0.73,0.25,0.27,0.77,0.32,0.35,0.52
9/12/2018 12:20 PM,79.90,1.83,0.08,95,81.00,2.06,0.04,96,95.10,1.39,0.00,94,56.30,0.91,-0.15,95,51.60,1.23,-0.07,94,95.80,0.54,-0.06,91,312.80,9.29,-1.47,65,187.80,1.71,-0.27,89,180.20,10.21,-0.36,67,33.40,5.17,-0.23,45,316.10,11.25,-1.01,33,0.25,0.39,2.13,1.82,1.19,2.03,0.55,2.25,0.56,1.61,1.60
9/12/2018 12:30 PM,67.10,1.91,0.05,97,70.00,1.84,0.07,97,66.80,2.36,0.03,96,58.30,2.24,0.05,95,17.40,4.83,-0.72,89,0.30,9.31,-2.07,81,23.00,15.61,-4.78,49,69.30,10.11,-2.22,86,65.80,5.70,-7.12,40,350.90,1.19,-6.83,43,11.70,8.35,-6.66,36,0.27,0.25,0.26,0.33,0.49,0.51,0.46,0.59,0.95,1.37,1.33